Time,TemperatureF,DewpointF,PressureIn,WindDirection,WindDirectionDegrees,WindSpeedMPH,WindSpeedGustMPH,Humidity,HourlyPrecipIn,Conditions,Clouds,dailyrainin,SoftwareType,DateUTC
2013-02-16 00:03:00,22.6,14.7,30.12,WNW,292,2.5,2.5,71,0.00,,---,0.00,VWS V14.01,2013-02-16 06:03:00,
2013-02-16 00:08:00,22.5,14.5,30.12,NE,45,2.2,2.2,71,0.00,,---,0.00,VWS V14.01,2013-02-16 06:08:00,
2013-02-16 00:13:00,22.3,14.0,30.12,NE,45,0.9,0.9,70,0.00,,---,0.00,VWS V14.01,2013-02-16 06:13:00,
2013-02-16 00:18:00,22.1,13.8,30.12,NE,45,0.0,0.0,70,0.00,,---,0.00,VWS V14.01,2013-02-16 06:18:00,
2013-02-16 00:23:00,21.9,13.3,30.12,North,0,1.3,1.3,69,0.00,,---,0.00,VWS V14.01,2013-02-16 06:23:00,
2013-02-16 00:28:00,21.4,12.8,30.12,NW,315,1.3,1.3,69,0.00,,---,0.00,VWS V14.01,2013-02-16 06:28:00,
2013-02-16 00:33:00,21.2,12.6,30.12,ENE,68,1.3,1.3,69,0.00,,---,0.00,VWS V14.01,2013-02-16 06:33:00,
2013-02-16 00:38:00,20.7,12.1,30.12,NNW,338,1.3,1.6,69,0.00,,---,0.00,VWS V14.01,2013-02-16 06:38:00,
2013-02-16 00:43:00,20.7,12.1,30.12,NNW,338,2.2,2.2,69,0.00,,---,0.00,VWS V14.01,2013-02-16 06:43:00,
2013-02-16 00:48:00,20.1,11.3,30.12,WSW,248,1.6,1.6,68,0.00,,---,0.00,VWS V14.01,2013-02-16 06:48:00,
2013-02-16 00:53:00,19.9,11.1,30.12,NNW,338,1.1,1.1,68,0.00,,---,0.00,VWS V14.01,2013-02-16 06:53:00,
2013-02-16 00:58:00,19.6,10.8,30.12,NE,45,1.3,1.3,68,0.00,,---,0.00,VWS V14.01,2013-02-16 06:58:00,
2013-02-16 01:03:00,19.2,10.7,30.12,NNE,22,0.0,0.0,69,0.00,,---,0.00,VWS V14.01,2013-02-16 07:03:00,
2013-02-16 01:08:00,18.5,10.0,30.12,NNE,22,0.0,0.0,69,0.00,,---,0.00,VWS V14.01,2013-02-16 07:08:00,
2013-02-16 01:13:00,18.1,9.7,30.12,NNE,22,0.0,0.0,69,0.00,,---,0.00,VWS V14.01,2013-02-16 07:13:00,
2013-02-16 01:18:00,17.8,9.4,30.12,NNE,22,0.0,0.0,69,0.00,,---,0.00,VWS V14.01,2013-02-16 07:18:00,
2013-02-16 01:23:00,17.4,9.3,30.12,NNE,22,0.0,0.0,70,0.00,,---,0.00,VWS V14.01,2013-02-16 07:23:00,
2013-02-16 01:28:00,17.2,9.1,30.12,NNE,22,0.0,0.0,70,0.00,,---,0.00,VWS V14.01,2013-02-16 07:28:00,
2013-02-16 01:33:00,17.2,9.5,30.12,WNW,292,1.6,2.0,71,0.00,,---,0.00,VWS V14.01,2013-02-16 07:33:00,
2013-02-16 01:38:00,17.2,9.5,30.09,WNW,292,1.6,1.6,71,0.00,,---,0.00,VWS V14.01,2013-02-16 07:38:00,
2013-02-16 01:43:00,17.1,9.3,30.09,WNW,292,2.0,2.0,71,0.00,,---,0.00,VWS V14.01,2013-02-16 07:43:00,
2013-02-16 01:48:00,17.1,9.3,30.09,NNW,338,2.7,2.7,71,0.00,,---,0.00,VWS V14.01,2013-02-16 07:48:00,
2013-02-16 01:53:00,16.9,9.4,30.09,NNW,338,1.6,1.6,72,0.00,,---,0.00,VWS V14.01,2013-02-16 07:53:00,
2013-02-16 01:58:00,16.9,9.4,30.09,NNW,338,0.0,2.5,72,0.00,,---,0.00,VWS V14.01,2013-02-16 07:58:00,
2013-02-16 02:03:00,16.9,9.4,30.09,NNW,338,2.0,2.7,72,0.00,,---,0.00,VWS V14.01,2013-02-16 08:03:00,
2013-02-16 02:08:00,16.7,9.3,30.09,NNE,22,0.0,0.0,72,0.00,,---,0.00,VWS V14.01,2013-02-16 08:08:00,
2013-02-16 02:13:00,16.5,9.1,30.09,NW,315,1.1,2.0,72,0.00,,---,0.00,VWS V14.01,2013-02-16 08:13:00,
2013-02-16 02:18:00,16.3,8.9,30.09,NNW,338,0.9,1.1,72,0.00,,---,0.00,VWS V14.01,2013-02-16 08:18:00,
2013-02-16 02:23:00,16.2,8.7,30.09,NNW,338,1.1,1.1,72,0.00,,---,0.00,VWS V14.01,2013-02-16 08:23:00,
2013-02-16 02:28:00,16.2,9.0,30.09,NNW,338,0.0,2.0,73,0.00,,---,0.00,VWS V14.01,2013-02-16 08:28:00,
2013-02-16 02:33:00,16.3,9.2,30.09,NNW,338,2.7,2.7,73,0.00,,---,0.00,VWS V14.01,2013-02-16 08:33:00,
2013-02-16 02:38:00,16.2,9.4,30.09,NW,315,0.9,0.9,74,0.00,,---,0.00,VWS V14.01,2013-02-16 08:38:00,
2013-02-16 02:43:00,16.2,9.4,30.09,NNW,338,0.0,1.3,74,0.00,,---,0.00,VWS V14.01,2013-02-16 08:43:00,
2013-02-16 02:48:00,16.0,9.2,30.09,ENE,68,0.9,0.9,74,0.00,,---,0.00,VWS V14.01,2013-02-16 08:48:00,
2013-02-16 02:53:00,15.8,9.0,30.09,SE,135,0.0,1.3,74,0.00,,---,0.00,VWS V14.01,2013-02-16 08:53:00,
2013-02-16 02:58:00,15.8,9.0,30.09,NNW,338,0.0,0.0,74,0.00,,---,0.00,VWS V14.01,2013-02-16 08:58:00,
2013-02-16 03:03:00,15.4,8.6,30.09,NW,315,0.0,0.0,74,0.00,,---,0.00,VWS V14.01,2013-02-16 09:03:00,
2013-02-16 03:08:00,15.3,8.5,30.09,WNW,292,1.1,1.3,74,0.00,,---,0.00,VWS V14.01,2013-02-16 09:08:00,
2013-02-16 03:13:00,15.3,8.5,30.09,West,270,1.6,1.6,74,0.00,,---,0.00,VWS V14.01,2013-02-16 09:13:00,
2013-02-16 03:18:00,15.1,8.3,30.09,WNW,292,0.0,1.1,74,0.00,,---,0.00,VWS V14.01,2013-02-16 09:18:00,
2013-02-16 03:23:00,14.9,8.1,30.09,West,270,0.0,0.0,74,0.00,,---,0.00,VWS V14.01,2013-02-16 09:23:00,
2013-02-16 03:28:00,14.4,7.6,30.09,West,270,0.0,0.0,74,0.00,,---,0.00,VWS V14.01,2013-02-16 09:28:00,
2013-02-16 03:33:00,14.4,7.6,30.09,West,270,0.0,0.0,74,0.00,,---,0.00,VWS V14.01,2013-02-16 09:33:00,
2013-02-16 03:38:00,14.2,7.4,30.09,West,270,1.6,1.6,74,0.00,,---,0.00,VWS V14.01,2013-02-16 09:38:00,
2013-02-16 03:43:00,14.2,7.4,30.09,West,270,1.6,1.6,74,0.00,,---,0.00,VWS V14.01,2013-02-16 09:43:00,
2013-02-16 03:48:00,14.0,7.2,30.09,West,270,0.9,1.6,74,0.00,,---,0.00,VWS V14.01,2013-02-16 09:48:00,
2013-02-16 03:53:00,13.8,7.1,30.09,West,270,0.9,1.6,74,0.00,,---,0.00,VWS V14.01,2013-02-16 09:53:00,
2013-02-16 03:58:00,13.6,6.9,30.09,West,270,0.0,0.0,74,0.00,,---,0.00,VWS V14.01,2013-02-16 09:58:00,
2013-02-16 04:03:00,13.5,6.7,30.09,West,270,0.0,0.0,74,0.00,,---,0.00,VWS V14.01,2013-02-16 10:03:00,
2013-02-16 04:08:00,13.5,6.7,30.09,West,270,0.0,0.0,74,0.00,,---,0.00,VWS V14.01,2013-02-16 10:08:00,
2013-02-16 04:13:00,13.5,6.7,30.09,West,270,0.0,0.0,74,0.00,,---,0.00,VWS V14.01,2013-02-16 10:13:00,
2013-02-16 04:18:00,13.5,6.7,30.09,West,270,1.1,1.1,74,0.00,,---,0.00,VWS V14.01,2013-02-16 10:18:00,
2013-02-16 04:23:00,13.5,6.7,30.09,West,270,1.1,1.3,74,0.00,,---,0.00,VWS V14.01,2013-02-16 10:23:00,
2013-02-16 04:28:00,13.3,6.6,30.09,WSW,248,1.1,1.1,74,0.00,,---,0.00,VWS V14.01,2013-02-16 10:28:00,
2013-02-16 04:33:00,13.3,6.6,30.09,WSW,248,2.5,3.4,74,0.00,,---,0.00,VWS V14.01,2013-02-16 10:33:00,
2013-02-16 04:38:00,13.1,6.4,30.06,WSW,248,0.0,0.0,74,0.00,,---,0.00,VWS V14.01,2013-02-16 10:38:00,
2013-02-16 04:43:00,12.9,6.2,30.06,SSW,202,1.1,1.1,74,0.00,,---,0.00,VWS V14.01,2013-02-16 10:43:00,
2013-02-16 04:48:00,12.9,6.2,30.06,SSW,202,1.1,2.0,74,0.00,,---,0.00,VWS V14.01,2013-02-16 10:48:00,
2013-02-16 04:53:00,12.9,6.2,30.06,WSW,248,1.1,1.1,74,0.00,,---,0.00,VWS V14.01,2013-02-16 10:53:00,
2013-02-16 04:58:00,13.1,6.4,30.06,WSW,248,1.6,1.6,74,0.00,,---,0.00,VWS V14.01,2013-02-16 10:58:00,
2013-02-16 05:03:00,13.1,6.4,30.06,SW,225,1.3,1.3,74,0.00,,---,0.00,VWS V14.01,2013-02-16 11:03:00,
2013-02-16 05:09:00,13.1,6.4,30.06,SSW,202,0.9,0.9,74,0.00,,---,0.00,VWS V14.01,2013-02-16 11:09:00,
2013-02-16 05:14:00,12.9,6.2,30.06,SW,225,1.6,1.6,74,0.00,,---,0.00,VWS V14.01,2013-02-16 11:14:00,
2013-02-16 05:19:00,12.9,6.2,30.06,WSW,248,2.2,2.2,74,0.00,,---,0.00,VWS V14.01,2013-02-16 11:19:00,
2013-02-16 05:24:00,12.9,6.2,30.06,WNW,292,0.0,1.3,74,0.00,,---,0.00,VWS V14.01,2013-02-16 11:24:00,
2013-02-16 05:29:00,13.1,6.4,30.06,WSW,248,0.0,0.9,74,0.00,,---,0.00,VWS V14.01,2013-02-16 11:29:00,
2013-02-16 05:34:00,13.3,6.6,30.06,WSW,248,1.3,1.3,74,0.00,,---,0.00,VWS V14.01,2013-02-16 11:34:00,
2013-02-16 05:39:00,13.3,6.6,30.06,SW,225,1.3,1.3,74,0.00,,---,0.00,VWS V14.01,2013-02-16 11:39:00,
2013-02-16 05:44:00,13.5,6.7,30.06,WSW,248,1.6,1.6,74,0.00,,---,0.00,VWS V14.01,2013-02-16 11:44:00,
2013-02-16 05:49:00,13.5,6.7,30.06,SSW,202,2.7,2.7,74,0.00,,---,0.00,VWS V14.01,2013-02-16 11:49:00,
2013-02-16 05:54:00,13.5,6.7,30.06,SW,225,2.0,2.0,74,0.00,,---,0.00,VWS V14.01,2013-02-16 11:54:00,
2013-02-16 05:59:00,13.6,6.9,30.06,SW,225,1.1,1.1,74,0.00,,---,0.00,VWS V14.01,2013-02-16 11:59:00,
2013-02-16 06:04:00,13.6,6.9,30.06,SSW,202,2.2,2.2,74,0.00,,---,0.00,VWS V14.01,2013-02-16 12:04:00,
2013-02-16 06:09:00,13.6,6.9,30.03,SW,225,2.0,2.0,74,0.00,,---,0.00,VWS V14.01,2013-02-16 12:09:00,
2013-02-16 06:14:00,13.6,6.9,30.03,SSW,202,2.0,2.0,74,0.00,,---,0.00,VWS V14.01,2013-02-16 12:14:00,
2013-02-16 06:19:00,13.6,6.9,30.03,WSW,248,2.2,2.2,74,0.00,,---,0.00,VWS V14.01,2013-02-16 12:19:00,
2013-02-16 06:24:00,13.6,6.9,30.03,WSW,248,1.6,1.6,74,0.00,,---,0.00,VWS V14.01,2013-02-16 12:24:00,
2013-02-16 06:29:00,13.6,6.9,30.03,WSW,248,2.0,2.0,74,0.00,,---,0.00,VWS V14.01,2013-02-16 12:29:00,
2013-02-16 06:34:00,13.6,6.9,30.03,SSW,202,1.6,1.6,74,0.00,,---,0.00,VWS V14.01,2013-02-16 12:34:00,
2013-02-16 06:39:00,13.6,6.9,30.03,WSW,248,0.0,0.0,74,0.00,,---,0.00,VWS V14.01,2013-02-16 12:39:00,
2013-02-16 06:44:00,13.8,7.1,30.03,West,270,1.6,1.6,74,0.00,,---,0.00,VWS V14.01,2013-02-16 12:44:00,
2013-02-16 06:49:00,13.8,7.1,30.03,SSW,202,0.0,0.0,74,0.00,,---,0.00,VWS V14.01,2013-02-16 12:49:00,
2013-02-16 06:54:00,14.0,8.4,30.03,SSW,202,0.9,0.9,78,0.00,,---,0.00,VWS V14.01,2013-02-16 12:54:00,
2013-02-16 06:59:00,14.2,8.3,30.03,SSW,202,1.3,1.3,77,0.00,,---,0.00,VWS V14.01,2013-02-16 12:59:00,
2013-02-16 07:04:00,14.2,8.3,30.03,SSW,202,1.6,1.6,77,0.00,,---,0.00,VWS V14.01,2013-02-16 13:04:00,
2013-02-16 07:09:00,14.4,8.5,30.03,SW,225,0.0,0.0,77,0.00,,---,0.00,VWS V14.01,2013-02-16 13:09:00,
2013-02-16 07:14:00,14.4,8.5,30.03,SSW,202,2.2,2.2,77,0.00,,---,0.00,VWS V14.01,2013-02-16 13:14:00,
2013-02-16 07:19:00,14.5,8.7,30.03,NW,315,1.3,1.3,77,0.00,,---,0.00,VWS V14.01,2013-02-16 13:19:00,
2013-02-16 07:24:00,14.5,8.7,30.00,SSW,202,0.9,0.9,77,0.00,,---,0.00,VWS V14.01,2013-02-16 13:24:00,
2013-02-16 07:29:00,14.4,8.5,30.00,South,180,3.1,3.1,77,0.00,,---,0.00,VWS V14.01,2013-02-16 13:29:00,
2013-02-16 07:34:00,14.5,8.7,30.00,South,180,1.6,1.6,77,0.00,,---,0.00,VWS V14.01,2013-02-16 13:34:00,
2013-02-16 07:39:00,14.5,8.7,30.00,WSW,248,1.3,1.3,77,0.00,,---,0.00,VWS V14.01,2013-02-16 13:39:00,
2013-02-16 07:44:00,14.5,8.7,30.00,South,180,0.0,0.0,77,0.00,,---,0.00,VWS V14.01,2013-02-16 13:44:00,
2013-02-16 07:49:00,14.5,8.7,30.00,SSW,202,1.6,1.6,77,0.00,,---,0.00,VWS V14.01,2013-02-16 13:49:00,
2013-02-16 07:54:00,14.9,9.0,30.00,SSW,202,1.3,1.3,77,0.00,,---,0.00,VWS V14.01,2013-02-16 13:54:00,
2013-02-16 07:59:00,15.3,9.4,30.00,SW,225,1.6,1.6,77,0.00,,---,0.00,VWS V14.01,2013-02-16 13:59:00,
2013-02-16 08:04:00,15.8,9.9,30.00,ESE,112,1.3,1.3,77,0.00,,---,0.00,VWS V14.01,2013-02-16 14:04:00,
2013-02-16 08:09:00,16.3,10.4,30.00,SE,135,1.1,1.1,77,0.00,,---,0.00,VWS V14.01,2013-02-16 14:09:00,
2013-02-16 08:14:00,17.1,11.1,30.00,SSW,202,2.5,2.5,77,0.00,,---,0.00,VWS V14.01,2013-02-16 14:14:00,
2013-02-16 08:19:00,17.4,11.5,30.00,WSW,248,1.6,1.6,77,0.00,,---,0.00,VWS V14.01,2013-02-16 14:19:00,
2013-02-16 08:24:00,17.8,11.5,30.00,SSW,202,2.9,2.9,76,0.00,,---,0.00,VWS V14.01,2013-02-16 14:24:00,
2013-02-16 08:29:00,18.3,11.7,30.00,WSW,248,2.5,2.5,75,0.00,,---,0.00,VWS V14.01,2013-02-16 14:29:00,
2013-02-16 08:34:00,19.0,12.4,30.00,SSW,202,1.6,1.6,75,0.00,,---,0.00,VWS V14.01,2013-02-16 14:34:00,
2013-02-16 08:39:00,20.3,13.4,29.97,WSW,248,4.0,4.0,74,0.00,,---,0.00,VWS V14.01,2013-02-16 14:39:00,
2013-02-16 08:44:00,21.0,13.7,29.97,SSE,158,2.5,2.5,73,0.00,,---,0.00,VWS V14.01,2013-02-16 14:44:00,
2013-02-16 08:49:00,21.4,13.8,29.97,SSW,202,2.9,2.9,72,0.00,,---,0.00,VWS V14.01,2013-02-16 14:49:00,
2013-02-16 08:54:00,22.3,14.3,29.97,South,180,3.4,3.4,71,0.00,,---,0.00,VWS V14.01,2013-02-16 14:54:00,
2013-02-16 08:59:00,23.0,14.7,29.97,SSE,158,3.4,3.4,70,0.00,,---,0.00,VWS V14.01,2013-02-16 14:59:00,
2013-02-16 09:04:00,23.4,14.4,29.97,SSW,202,2.0,2.0,68,0.00,,---,0.00,VWS V14.01,2013-02-16 15:04:00,
2013-02-16 09:09:00,24.3,15.2,29.97,WNW,292,3.6,3.6,68,0.00,,---,0.00,VWS V14.01,2013-02-16 15:09:00,
2013-02-16 09:14:00,24.6,15.2,29.97,South,180,3.1,3.1,67,0.00,,---,0.00,VWS V14.01,2013-02-16 15:14:00,
2013-02-16 09:19:00,25.3,15.6,29.97,South,180,3.1,3.1,66,0.00,,---,0.00,VWS V14.01,2013-02-16 15:19:00,
2013-02-16 09:24:00,25.9,15.8,29.97,SSW,202,3.4,3.4,65,0.00,,---,0.00,VWS V14.01,2013-02-16 15:24:00,
2013-02-16 09:29:00,26.4,16.3,29.97,SSE,158,1.6,1.6,65,0.00,,---,0.00,VWS V14.01,2013-02-16 15:29:00,
2013-02-16 09:34:00,27.0,16.1,29.97,SW,225,2.5,2.5,63,0.00,,---,0.00,VWS V14.01,2013-02-16 15:34:00,
2013-02-16 09:39:00,27.9,16.9,29.97,SW,225,3.8,3.8,63,0.00,,---,0.00,VWS V14.01,2013-02-16 15:39:00,
2013-02-16 09:44:00,28.2,16.9,29.97,SSW,202,2.7,2.7,62,0.00,,---,0.00,VWS V14.01,2013-02-16 15:44:00,
2013-02-16 09:49:00,28.9,17.2,29.97,SSW,202,5.4,5.4,61,0.00,,---,0.00,VWS V14.01,2013-02-16 15:49:00,
2013-02-16 09:54:00,29.1,17.4,29.97,WSW,248,2.0,5.4,61,0.00,,---,0.00,VWS V14.01,2013-02-16 15:54:00,
2013-02-16 09:59:00,29.3,17.1,29.97,WSW,248,4.0,4.0,60,0.00,,---,0.00,VWS V14.01,2013-02-16 15:59:00,
2013-02-16 10:04:00,28.9,16.8,29.97,SSW,202,3.1,3.1,60,0.00,,---,0.00,VWS V14.01,2013-02-16 16:04:00,
2013-02-16 10:09:00,29.1,17.0,29.97,South,180,3.6,3.6,60,0.00,,---,0.00,VWS V14.01,2013-02-16 16:09:00,
2013-02-16 10:14:00,29.3,17.1,29.97,South,180,2.7,2.7,60,0.00,,---,0.00,VWS V14.01,2013-02-16 16:14:00,
2013-02-16 10:19:00,29.1,17.0,29.97,SW,225,4.3,4.3,60,0.00,,---,0.00,VWS V14.01,2013-02-16 16:19:00,
2013-02-16 10:24:00,29.3,17.1,29.94,SSW,202,2.7,3.4,60,0.00,,---,0.00,VWS V14.01,2013-02-16 16:24:00,
2013-02-16 10:29:00,28.6,16.1,29.94,SSW,202,2.9,2.9,59,0.00,,---,0.00,VWS V14.01,2013-02-16 16:29:00,
2013-02-16 10:34:00,28.4,16.3,29.94,WSW,248,2.7,4.3,60,0.00,,---,0.00,VWS V14.01,2013-02-16 16:34:00,
2013-02-16 10:39:00,28.6,16.5,29.94,SE,135,1.3,3.8,60,0.00,,---,0.00,VWS V14.01,2013-02-16 16:39:00,
2013-02-16 10:44:00,28.9,16.8,29.94,SSE,158,2.9,2.9,60,0.00,,---,0.00,VWS V14.01,2013-02-16 16:44:00,
2013-02-16 10:49:00,28.9,16.8,29.94,WSW,248,3.1,3.1,60,0.00,,---,0.00,VWS V14.01,2013-02-16 16:49:00,
2013-02-16 10:54:00,28.9,16.8,29.94,South,180,3.1,3.4,60,0.00,,---,0.00,VWS V14.01,2013-02-16 16:54:00,
2013-02-16 10:59:00,28.8,16.6,29.94,South,180,1.1,3.1,60,0.00,,---,0.00,VWS V14.01,2013-02-16 16:59:00,
2013-02-16 11:04:00,29.3,17.1,29.94,SSW,202,3.4,3.4,60,0.00,,---,0.00,VWS V14.01,2013-02-16 17:04:00,
2013-02-16 11:09:00,29.7,17.5,29.94,SSE,158,2.9,4.0,60,0.00,,---,0.00,VWS V14.01,2013-02-16 17:09:00,
2013-02-16 11:14:00,30.4,18.2,29.94,SSE,158,3.1,3.4,60,0.00,,---,0.00,VWS V14.01,2013-02-16 17:14:00,
2013-02-16 11:19:00,30.9,18.3,29.94,South,180,5.8,5.8,59,0.00,,---,0.00,VWS V14.01,2013-02-16 17:19:00,
2013-02-16 11:24:00,31.3,18.6,29.94,WSW,248,4.0,4.0,59,0.00,,---,0.00,VWS V14.01,2013-02-16 17:24:00,
2013-02-16 11:29:00,31.5,18.8,29.94,SSW,202,1.3,1.3,59,0.00,,---,0.00,VWS V14.01,2013-02-16 17:29:00,
2013-02-16 11:34:00,32.5,19.8,29.94,South,180,2.7,2.7,59,0.00,,---,0.00,VWS V14.01,2013-02-16 17:34:00,
2013-02-16 11:39:00,32.4,19.6,29.91,WSW,248,3.1,5.4,59,0.00,,---,0.00,VWS V14.01,2013-02-16 17:39:00,
2013-02-16 11:44:00,32.2,19.1,29.91,South,180,6.3,6.3,58,0.00,,---,0.00,VWS V14.01,2013-02-16 17:44:00,
2013-02-16 11:49:00,31.6,18.6,29.91,SSE,158,2.9,3.4,58,0.00,,---,0.00,VWS V14.01,2013-02-16 17:49:00,
2013-02-16 11:54:00,31.1,18.1,29.91,SW,225,3.1,3.6,58,0.00,,---,0.00,VWS V14.01,2013-02-16 17:54:00,
2013-02-16 11:59:00,30.7,17.7,29.91,SSW,202,3.4,7.4,58,0.00,,---,0.00,VWS V14.01,2013-02-16 17:59:00,
2013-02-16 12:04:00,30.6,18.0,29.91,WSW,248,3.4,3.4,59,0.00,,---,0.00,VWS V14.01,2013-02-16 18:04:00,
2013-02-16 12:09:00,30.9,18.3,29.91,SW,225,3.6,3.6,59,0.00,,---,0.00,VWS V14.01,2013-02-16 18:09:00,
2013-02-16 12:14:00,30.9,18.7,29.91,SW,225,3.1,3.1,60,0.00,,---,0.00,VWS V14.01,2013-02-16 18:14:00,
2013-02-16 12:19:00,31.1,18.9,29.91,SE,135,4.9,4.9,60,0.00,,---,0.00,VWS V14.01,2013-02-16 18:19:00,
2013-02-16 12:24:00,31.1,18.9,29.88,SSW,202,2.5,2.5,60,0.00,,---,0.00,VWS V14.01,2013-02-16 18:24:00,
2013-02-16 12:29:00,31.1,18.9,29.88,SSW,202,2.5,2.5,60,0.00,,---,0.00,VWS V14.01,2013-02-16 18:29:00,
2013-02-16 12:34:00,31.3,19.0,29.88,SSW,202,2.5,6.3,60,0.00,,---,0.00,VWS V14.01,2013-02-16 18:34:00,
2013-02-16 12:39:00,31.6,19.4,29.88,WSW,248,3.4,3.6,60,0.00,,---,0.00,VWS V14.01,2013-02-16 18:39:00,
2013-02-16 12:44:00,31.5,19.2,29.88,SE,135,2.0,4.9,60,0.00,,---,0.00,VWS V14.01,2013-02-16 18:44:00,
2013-02-16 12:49:00,31.8,19.5,29.88,SSW,202,5.8,5.8,60,0.00,,---,0.00,VWS V14.01,2013-02-16 18:49:00,
2013-02-16 12:54:00,32.0,19.7,29.88,WSW,248,2.0,2.0,60,0.00,,---,0.00,VWS V14.01,2013-02-16 18:54:00,
2013-02-16 12:59:00,32.2,20.3,29.88,SSW,202,3.6,6.3,61,0.00,,---,0.00,VWS V14.01,2013-02-16 18:59:00,
2013-02-16 13:05:00,32.0,20.1,29.88,SW,225,2.5,5.6,61,0.00,,---,0.00,VWS V14.01,2013-02-16 19:05:00,
2013-02-16 13:09:00,32.2,20.3,29.88,South,180,2.5,2.5,61,0.00,,---,0.00,VWS V14.01,2013-02-16 19:09:00,
2013-02-16 13:14:00,32.4,20.4,29.88,South,180,2.5,3.1,61,0.00,,---,0.00,VWS V14.01,2013-02-16 19:14:00,
2013-02-16 13:19:00,32.4,20.4,29.88,SSE,158,2.9,4.0,61,0.00,,---,0.00,VWS V14.01,2013-02-16 19:19:00,
2013-02-16 13:24:00,32.7,21.1,29.88,ESE,112,3.1,3.1,62,0.00,,---,0.00,VWS V14.01,2013-02-16 19:24:00,
2013-02-16 13:30:00,32.9,21.3,29.88,SSE,158,2.2,2.2,62,0.00,,---,0.00,VWS V14.01,2013-02-16 19:30:00,
2013-02-16 13:35:00,33.3,21.7,29.88,South,180,3.6,3.6,62,0.00,,---,0.00,VWS V14.01,2013-02-16 19:35:00,
2013-02-16 13:40:00,33.3,21.7,29.88,WSW,248,3.1,3.4,62,0.00,,---,0.00,VWS V14.01,2013-02-16 19:40:00,
2013-02-16 13:44:00,33.3,21.7,29.88,South,180,2.9,3.4,62,0.00,,---,0.00,VWS V14.01,2013-02-16 19:44:00,
2013-02-16 13:49:00,33.4,21.8,29.88,SSW,202,2.7,3.4,62,0.00,,---,0.00,VWS V14.01,2013-02-16 19:49:00,
2013-02-16 13:54:00,33.6,22.0,29.85,SSW,202,5.6,5.6,62,0.00,,---,0.00,VWS V14.01,2013-02-16 19:54:00,
2013-02-16 14:00:00,33.8,22.2,29.85,SE,135,5.4,5.4,62,0.00,,---,0.00,VWS V14.01,2013-02-16 20:00:00,
2013-02-16 14:05:00,33.6,22.0,29.85,SW,225,2.9,3.4,62,0.00,,---,0.00,VWS V14.01,2013-02-16 20:05:00,
2013-02-16 14:10:00,33.6,22.0,29.85,SSE,158,6.5,6.5,62,0.00,,---,0.00,VWS V14.01,2013-02-16 20:10:00,
2013-02-16 14:15:00,33.6,22.0,29.85,NW,315,2.0,2.5,62,0.00,,---,0.00,VWS V14.01,2013-02-16 20:15:00,
2013-02-16 14:20:00,33.6,22.0,29.85,SSE,158,2.0,2.5,62,0.00,,---,0.00,VWS V14.01,2013-02-16 20:20:00,
2013-02-16 14:25:00,33.6,22.0,29.85,SSE,158,2.0,4.0,62,0.00,,---,0.00,VWS V14.01,2013-02-16 20:25:00,
2013-02-16 14:30:00,33.3,21.7,29.85,SW,225,1.6,2.5,62,0.00,,---,0.00,VWS V14.01,2013-02-16 20:30:00,
2013-02-16 14:35:00,33.3,22.0,29.85,ENE,68,3.6,3.8,63,0.00,,---,0.00,VWS V14.01,2013-02-16 20:35:00,
2013-02-16 14:40:00,32.9,21.7,29.85,South,180,2.5,3.1,63,0.00,,---,0.00,VWS V14.01,2013-02-16 20:40:00,
2013-02-16 14:45:00,33.1,21.9,29.85,West,270,2.7,2.7,63,0.00,,---,0.00,VWS V14.01,2013-02-16 20:45:00,
2013-02-16 14:50:00,33.3,22.0,29.85,SE,135,4.3,4.3,63,0.00,,---,0.00,VWS V14.01,2013-02-16 20:50:00,
2013-02-16 14:55:00,33.1,21.9,29.85,SSE,158,3.1,3.1,63,0.00,,---,0.00,VWS V14.01,2013-02-16 20:55:00,
2013-02-16 15:00:00,33.1,21.9,29.85,ESE,112,4.3,4.3,63,0.00,,---,0.00,VWS V14.01,2013-02-16 21:00:00,
2013-02-16 15:05:00,33.3,22.0,29.85,South,180,1.6,2.5,63,0.00,,---,0.00,VWS V14.01,2013-02-16 21:05:00,
2013-02-16 15:10:00,33.3,22.0,29.85,West,270,4.7,4.7,63,0.00,,---,0.00,VWS V14.01,2013-02-16 21:10:00,
2013-02-16 15:15:00,33.1,21.9,29.85,South,180,2.0,2.0,63,0.00,,---,0.00,VWS V14.01,2013-02-16 21:15:00,
2013-02-16 15:20:00,33.1,21.9,29.85,South,180,1.6,1.6,63,0.00,,---,0.00,VWS V14.01,2013-02-16 21:20:00,
2013-02-16 15:25:00,33.1,21.9,29.85,ESE,112,6.0,6.0,63,0.00,,---,0.00,VWS V14.01,2013-02-16 21:25:00,
2013-02-16 15:30:00,33.1,21.9,29.85,SW,225,1.6,1.6,63,0.00,,---,0.00,VWS V14.01,2013-02-16 21:30:00,
2013-02-16 15:35:00,33.1,21.9,29.85,SE,135,5.4,5.4,63,0.00,,---,0.00,VWS V14.01,2013-02-16 21:35:00,
2013-02-16 15:40:00,33.3,22.0,29.85,SSW,202,2.7,2.7,63,0.00,,---,0.00,VWS V14.01,2013-02-16 21:40:00,
2013-02-16 15:45:00,33.3,22.0,29.85,SSE,158,6.9,6.9,63,0.00,,---,0.00,VWS V14.01,2013-02-16 21:45:00,
2013-02-16 15:50:00,33.6,22.4,29.85,South,180,2.5,2.5,63,0.00,,---,0.00,VWS V14.01,2013-02-16 21:50:00,
2013-02-16 15:55:00,33.8,22.5,29.85,South,180,2.7,2.7,63,0.00,,---,0.00,VWS V14.01,2013-02-16 21:55:00,
2013-02-16 16:00:00,34.0,22.7,29.85,SSE,158,5.8,5.8,63,0.00,,---,0.00,VWS V14.01,2013-02-16 22:00:00,
2013-02-16 16:05:00,34.0,22.4,29.85,ESE,112,4.3,4.3,62,0.00,,---,0.00,VWS V14.01,2013-02-16 22:05:00,
2013-02-16 16:10:00,34.5,22.9,29.85,SW,225,2.0,2.0,62,0.00,,---,0.00,VWS V14.01,2013-02-16 22:10:00,
2013-02-16 16:15:00,35.6,23.5,29.85,South,180,5.6,5.6,61,0.00,,---,0.00,VWS V14.01,2013-02-16 22:15:00,
2013-02-16 16:20:00,35.4,23.3,29.85,SSW,202,8.1,8.1,61,0.00,,---,0.00,VWS V14.01,2013-02-16 22:20:00,
2013-02-16 16:25:00,35.1,22.6,29.85,SW,225,3.1,3.1,60,0.00,,---,0.00,VWS V14.01,2013-02-16 22:25:00,
2013-02-16 16:30:00,35.1,22.6,29.85,South,180,2.9,2.9,60,0.00,,---,0.00,VWS V14.01,2013-02-16 22:30:00,
2013-02-16 16:35:00,35.2,22.8,29.85,SSE,158,2.9,2.9,60,0.00,,---,0.00,VWS V14.01,2013-02-16 22:35:00,
2013-02-16 16:40:00,35.2,22.8,29.85,ESE,112,4.5,4.5,60,0.00,,---,0.00,VWS V14.01,2013-02-16 22:40:00,
2013-02-16 16:45:00,34.7,22.2,29.85,SSE,158,2.9,2.9,60,0.00,,---,0.00,VWS V14.01,2013-02-16 22:45:00,
2013-02-16 16:50:00,34.5,22.1,29.85,ESE,112,4.7,4.7,60,0.00,,---,0.00,VWS V14.01,2013-02-16 22:50:00,
2013-02-16 16:55:00,34.3,21.9,29.85,SSE,158,4.9,4.9,60,0.00,,---,0.00,VWS V14.01,2013-02-16 22:55:00,
2013-02-16 17:00:00,33.8,21.4,29.85,SW,225,3.8,3.8,60,0.00,,---,0.00,VWS V14.01,2013-02-16 23:00:00,
2013-02-16 17:05:00,33.6,21.6,29.85,SE,135,2.5,8.1,61,0.00,,---,0.00,VWS V14.01,2013-02-16 23:05:00,
2013-02-16 17:10:00,33.1,21.1,29.85,South,180,3.6,3.6,61,0.00,,---,0.00,VWS V14.01,2013-02-16 23:10:00,
2013-02-16 17:15:00,33.1,21.5,29.85,SSE,158,5.4,5.4,62,0.00,,---,0.00,VWS V14.01,2013-02-16 23:15:00,
2013-02-16 17:20:00,32.7,21.1,29.85,East,90,3.4,3.8,62,0.00,,---,0.00,VWS V14.01,2013-02-16 23:20:00,
2013-02-16 17:25:00,32.7,21.1,29.85,SE,135,3.1,3.1,62,0.00,,---,0.00,VWS V14.01,2013-02-16 23:25:00,
2013-02-16 17:30:00,32.5,21.0,29.85,SSE,158,3.1,4.0,62,0.00,,---,0.00,VWS V14.01,2013-02-16 23:30:00,
2013-02-16 17:35:00,32.5,21.0,29.85,ESE,112,7.2,7.2,62,0.00,,---,0.00,VWS V14.01,2013-02-16 23:35:00,
2013-02-16 17:40:00,32.5,21.4,29.85,ESE,112,4.9,4.9,63,0.00,,---,0.00,VWS V14.01,2013-02-16 23:40:00,
2013-02-16 17:45:00,32.2,21.0,29.85,ESE,112,7.6,7.6,63,0.00,,---,0.00,VWS V14.01,2013-02-16 23:45:00,
2013-02-16 17:50:00,32.2,21.0,29.85,SE,135,6.3,6.3,63,0.00,,---,0.00,VWS V14.01,2013-02-16 23:50:00,
2013-02-16 17:55:00,32.0,20.9,29.85,SSE,158,4.9,4.9,63,0.00,,---,0.00,VWS V14.01,2013-02-16 23:55:00,
2013-02-16 18:00:00,31.8,20.7,29.85,South,180,7.4,7.4,63,0.00,,---,0.00,VWS V14.01,2013-02-17 00:00:00,
2013-02-16 18:05:00,31.8,21.0,29.85,SE,135,3.4,3.4,64,0.00,,---,0.00,VWS V14.01,2013-02-17 00:05:00,
2013-02-16 18:10:00,31.8,21.0,29.85,SSE,158,4.3,4.3,64,0.00,,---,0.00,VWS V14.01,2013-02-17 00:10:00,
2013-02-16 18:15:00,31.8,21.0,29.85,South,180,1.1,1.3,64,0.00,,---,0.00,VWS V14.01,2013-02-17 00:15:00,
2013-02-16 18:20:00,31.8,21.0,29.85,SSE,158,4.3,4.3,64,0.00,,---,0.00,VWS V14.01,2013-02-17 00:20:00,
2013-02-16 18:25:00,31.8,21.0,29.85,ENE,68,5.4,5.4,64,0.00,,---,0.00,VWS V14.01,2013-02-17 00:25:00,
2013-02-16 18:30:00,31.6,20.9,29.85,SE,135,2.7,4.9,64,0.00,,---,0.00,VWS V14.01,2013-02-17 00:30:00,
2013-02-16 18:35:00,31.6,20.9,29.85,ESE,112,2.7,2.9,64,0.00,,---,0.00,VWS V14.01,2013-02-17 00:35:00,
2013-02-16 18:40:00,31.6,20.9,29.85,ESE,112,2.9,4.9,64,0.00,,---,0.00,VWS V14.01,2013-02-17 00:40:00,
2013-02-16 18:45:00,31.6,20.9,29.85,ESE,112,2.9,2.9,64,0.00,,---,0.00,VWS V14.01,2013-02-17 00:45:00,
2013-02-16 18:50:00,31.5,21.1,29.85,SE,135,3.6,4.7,65,0.00,,---,0.00,VWS V14.01,2013-02-17 00:50:00,
2013-02-16 18:55:00,31.5,20.7,29.82,SE,135,3.1,5.4,64,0.00,,---,0.00,VWS V14.01,2013-02-17 00:55:00,
2013-02-16 19:00:00,31.5,20.7,29.82,ESE,112,3.1,3.1,64,0.00,,---,0.00,VWS V14.01,2013-02-17 01:00:00,
2013-02-16 19:05:00,31.5,20.7,29.82,ESE,112,9.8,9.8,64,0.00,,---,0.00,VWS V14.01,2013-02-17 01:05:00,
2013-02-16 19:10:00,31.5,20.7,29.85,East,90,4.0,4.0,64,0.00,,---,0.00,VWS V14.01,2013-02-17 01:10:00,
2013-02-16 19:15:00,31.3,20.5,29.85,SE,135,8.1,8.1,64,0.00,,---,0.00,VWS V14.01,2013-02-17 01:15:00,
2013-02-16 19:20:00,31.1,20.7,29.85,ESE,112,2.9,3.6,65,0.00,,---,0.00,VWS V14.01,2013-02-17 01:20:00,
2013-02-16 19:25:00,31.1,20.7,29.85,ESE,112,3.8,3.8,65,0.00,,---,0.00,VWS V14.01,2013-02-17 01:25:00,
2013-02-16 19:30:00,31.1,20.7,29.85,ESE,112,1.6,2.9,65,0.00,,---,0.00,VWS V14.01,2013-02-17 01:30:00,
2013-02-16 19:35:00,31.1,20.7,29.85,ESE,112,4.7,4.7,65,0.00,,---,0.00,VWS V14.01,2013-02-17 01:35:00,
2013-02-16 19:41:00,31.1,20.7,29.85,SE,135,3.1,4.3,65,0.00,,---,0.00,VWS V14.01,2013-02-17 01:41:00,
2013-02-16 19:46:00,31.1,20.7,29.85,SE,135,4.9,6.3,65,0.00,,---,0.00,VWS V14.01,2013-02-17 01:46:00,
2013-02-16 19:51:00,31.1,21.1,29.85,ESE,112,5.4,5.4,66,0.00,,---,0.00,VWS V14.01,2013-02-17 01:51:00,
2013-02-16 19:56:00,31.1,21.1,29.82,ESE,112,3.6,3.6,66,0.00,,---,0.00,VWS V14.01,2013-02-17 01:56:00,
2013-02-16 20:01:00,31.1,21.1,29.82,SE,135,3.4,3.4,66,0.00,,---,0.00,VWS V14.01,2013-02-17 02:01:00,
2013-02-16 20:06:00,31.1,21.1,29.82,SSE,158,5.6,5.8,66,0.00,,---,0.00,VWS V14.01,2013-02-17 02:06:00,
2013-02-16 20:11:00,31.1,21.1,29.82,ESE,112,3.6,6.3,66,0.00,,---,0.00,VWS V14.01,2013-02-17 02:11:00,
2013-02-16 20:16:00,30.9,20.9,29.82,ESE,112,3.8,3.8,66,0.00,,---,0.00,VWS V14.01,2013-02-17 02:16:00,
2013-02-16 20:21:00,30.9,20.9,29.82,SE,135,5.8,5.8,66,0.00,,---,0.00,VWS V14.01,2013-02-17 02:21:00,
2013-02-16 20:26:00,30.9,20.9,29.82,ESE,112,5.6,5.6,66,0.00,,---,0.00,VWS V14.01,2013-02-17 02:26:00,
2013-02-16 20:31:00,30.9,20.9,29.82,ESE,112,2.7,2.7,66,0.00,,---,0.00,VWS V14.01,2013-02-17 02:31:00,
2013-02-16 20:36:00,30.9,20.9,29.82,SE,135,2.9,2.9,66,0.00,,---,0.00,VWS V14.01,2013-02-17 02:36:00,
2013-02-16 20:41:00,30.9,20.9,29.82,SSE,158,4.0,4.0,66,0.00,,---,0.00,VWS V14.01,2013-02-17 02:41:00,
2013-02-16 20:46:00,30.9,20.9,29.82,ESE,112,5.6,5.6,66,0.00,,---,0.00,VWS V14.01,2013-02-17 02:46:00,
2013-02-16 20:51:00,30.9,20.9,29.82,SE,135,3.4,3.4,66,0.00,,---,0.00,VWS V14.01,2013-02-17 02:51:00,
2013-02-16 20:56:00,30.9,20.9,29.82,ESE,112,4.9,4.9,66,0.00,,---,0.00,VWS V14.01,2013-02-17 02:56:00,
2013-02-16 21:01:00,30.9,20.9,29.82,SE,135,6.3,6.3,66,0.00,,---,0.00,VWS V14.01,2013-02-17 03:01:00,
2013-02-16 21:06:00,30.9,21.3,29.82,ESE,112,4.3,4.3,67,0.00,,---,0.00,VWS V14.01,2013-02-17 03:06:00,
2013-02-16 21:11:00,30.9,20.9,29.82,SE,135,3.6,7.4,66,0.00,,---,0.00,VWS V14.01,2013-02-17 03:11:00,
2013-02-16 21:16:00,30.9,20.9,29.82,SE,135,2.5,2.5,66,0.00,,---,0.00,VWS V14.01,2013-02-17 03:16:00,
2013-02-16 21:21:00,30.9,21.3,29.82,East,90,4.0,6.3,67,0.00,,---,0.00,VWS V14.01,2013-02-17 03:21:00,
2013-02-16 21:26:00,30.7,21.1,29.82,ESE,112,3.1,3.1,67,0.00,,---,0.00,VWS V14.01,2013-02-17 03:26:00,
2013-02-16 21:31:00,30.7,21.1,29.82,ESE,112,2.9,2.9,67,0.00,,---,0.00,VWS V14.01,2013-02-17 03:31:00,
2013-02-16 21:36:00,30.7,21.1,29.82,ESE,112,3.8,3.8,67,0.00,,---,0.00,VWS V14.01,2013-02-17 03:36:00,
2013-02-16 21:41:00,30.7,21.1,29.82,SE,135,5.4,5.4,67,0.00,,---,0.00,VWS V14.01,2013-02-17 03:41:00,
2013-02-16 21:46:00,30.7,21.1,29.82,SSE,158,2.9,2.9,67,0.00,,---,0.00,VWS V14.01,2013-02-17 03:46:00,
2013-02-16 21:51:00,30.6,20.9,29.82,SSE,158,6.0,6.0,67,0.00,,---,0.00,VWS V14.01,2013-02-17 03:51:00,
2013-02-16 21:56:00,30.6,20.9,29.82,SE,135,4.3,4.3,67,0.00,,---,0.00,VWS V14.01,2013-02-17 03:56:00,
2013-02-16 22:01:00,30.6,20.9,29.82,SE,135,3.4,3.4,67,0.00,,---,0.00,VWS V14.01,2013-02-17 04:01:00,
2013-02-16 22:06:00,30.4,20.8,29.82,ESE,112,4.0,4.0,67,0.00,,---,0.00,VWS V14.01,2013-02-17 04:06:00,
2013-02-16 22:11:00,30.4,20.8,29.82,ESE,112,3.6,3.6,67,0.00,,---,0.00,VWS V14.01,2013-02-17 04:11:00,
2013-02-16 22:16:00,30.2,20.9,29.82,SSE,158,2.9,2.9,68,0.00,,---,0.00,VWS V14.01,2013-02-17 04:16:00,
2013-02-16 22:21:00,30.2,20.9,29.82,SE,135,6.7,6.7,68,0.00,,---,0.00,VWS V14.01,2013-02-17 04:21:00,
2013-02-16 22:26:00,30.2,20.9,29.82,SSE,158,5.6,5.6,68,0.00,,---,0.00,VWS V14.01,2013-02-17 04:26:00,
2013-02-16 22:31:00,30.0,20.8,29.82,ESE,112,2.7,2.7,68,0.00,,---,0.00,VWS V14.01,2013-02-17 04:31:00,
2013-02-16 22:36:00,29.8,20.6,29.82,ESE,112,3.8,3.8,68,0.00,,---,0.00,VWS V14.01,2013-02-17 04:36:00,
2013-02-16 22:41:00,29.7,20.4,29.82,SE,135,2.9,2.9,68,0.00,,---,0.00,VWS V14.01,2013-02-17 04:41:00,
2013-02-16 22:46:00,29.7,20.4,29.82,SSE,158,3.6,3.6,68,0.00,,---,0.00,VWS V14.01,2013-02-17 04:46:00,
2013-02-16 22:51:00,29.5,20.6,29.82,East,90,4.0,4.0,69,0.00,,---,0.00,VWS V14.01,2013-02-17 04:51:00,
2013-02-16 22:56:00,29.5,20.6,29.82,SSE,158,3.8,3.8,69,0.00,,---,0.00,VWS V14.01,2013-02-17 04:56:00,
2013-02-16 23:00:00,29.3,20.4,29.82,ESE,112,6.0,6.0,69,0.00,,---,0.00,VWS V14.01,2013-02-17 05:00:00,
2013-02-16 23:05:00,29.3,20.4,29.82,ESE,112,2.9,3.6,69,0.00,,---,0.00,VWS V14.01,2013-02-17 05:05:00,
2013-02-16 23:10:00,29.1,20.2,29.82,SSE,158,2.7,4.7,69,0.00,,---,0.00,VWS V14.01,2013-02-17 05:10:00,
2013-02-16 23:15:00,29.1,20.2,29.82,ESE,112,2.2,2.2,69,0.00,,---,0.00,VWS V14.01,2013-02-17 05:15:00,
2013-02-16 23:20:00,29.1,20.2,29.82,SSE,158,2.0,5.6,69,0.00,,---,0.00,VWS V14.01,2013-02-17 05:20:00,
2013-02-16 23:25:00,28.9,20.1,29.79,SE,135,5.6,5.6,69,0.00,,---,0.00,VWS V14.01,2013-02-17 05:25:00,
2013-02-16 23:30:00,28.9,20.4,29.79,SSE,158,4.9,4.9,70,0.00,,---,0.00,VWS V14.01,2013-02-17 05:30:00,
2013-02-16 23:35:00,28.8,20.2,29.79,SSE,158,4.7,4.7,70,0.00,,---,0.00,VWS V14.01,2013-02-17 05:35:00,
2013-02-16 23:40:00,28.8,20.2,29.79,ESE,112,4.3,4.3,70,0.00,,---,0.00,VWS V14.01,2013-02-17 05:40:00,
2013-02-16 23:45:00,28.6,20.0,29.79,SE,135,3.4,3.4,70,0.00,,---,0.00,VWS V14.01,2013-02-17 05:45:00,
2013-02-16 23:50:00,28.6,20.0,29.79,ESE,112,3.8,3.8,70,0.00,,---,0.00,VWS V14.01,2013-02-17 05:50:00,
2013-02-16 23:55:00,28.6,20.0,29.79,ESE,112,2.7,2.7,70,0.00,,---,0.00,VWS V14.01,2013-02-17 05:55:00,